Regional Weather Roundup
Issued by NWS Pendleton, OR

Home | Current Version | Previous Version | Text Only | Print | Product List | Glossary On
Versions: 1 2 3 4 5 6 7 8 9 10 11 12 13 14 15 16 17 18 19 20 21 22 23 24 25 26 27 28 29 30 31 32 33 34 35 36 37 38 39 40 41 42 43 44 45 46 47 48 49 50
707
ASUS46 KPDT 031925
RWRPDT
PENDLETON REGIONAL WEATHER ROUNDUP
NATIONAL WEATHER SERVICE PENDLETON OREGON
1100 AM PST SAT DEC 3 2016

NOTE: FAIR INDICATES FEW OR NO CLOUDS BELOW 12,000 FEET WITH NO
SIGNIFICANT WEATHER AND/OR OBSTRUCTIONS TO VISIBILITY.

# INDICATES UNOFFICIAL STATION AND DATA

WAZ520-032010-
EAST SLOPES OF WASHINGTON CASCADES

CITY            SKY/WX      TMP DP  RH  WIND    PRES   REMARKS
#CLE ELUM HS    N/A         40  33  76  NW7     30.13F
#CLE ELUM LAKE  N/A         38  33  82  W2      30.21F
#GLENWOOD       N/A         45  36  70  SW14G26 30.25R WCI 39
#MANASTASH CYN  N/A         42  29  60  CALM    30.11F
#NELSON 3SW     N/A         38  32  79  N2      30.43F
#NILE           N/A         43  32  65  W5      29.47F
#RONALD 2NW     N/A         37  N/A N/A W3      30.12F
#TEANAWAY 4NE   N/A         43  35  73  SW7     N/A
#TROUT LAKE 1NE N/A         42  35  76  W8      30.30S
#TROUT LAKE 1E  N/A         43  36  76  CALM    30.23R
$$

WAZ521-032010-
SIMCOE HIGHLANDS

CITY            SKY/WX      TMP DP  RH  WIND    PRES   REMARKS
#CENTERVILLE 1SWN/A         43  36  76  W16     30.26R WCI 35
#GOLDENDALE 1NE N/A         45  24  43  S10     N/A
#GOLDENDALE 4W  N/A         46  12  25  W9      30.26F
#GOODNOE HILLS  N/A         48  36  63  SW26    30.14F WCI 40
#LYLE 6NE       N/A         43  37  79  SW10    30.26F
$$

WAZ026-032010-
KITTITAS VALLEY

CITY            SKY/WX      TMP DP  RH  WIND    PRES   REMARKS
ELLENSBURG AP   PTCLDY      45  31  58  W13     30.17F WCI 39
#ELLENSBURG CWU N/A         42  33  70  S1      30.16F
#ELLENSBURG 3NE N/A         42  34  73  N7      30.16F
#KITTITAS 4N    N/A         45  35  68  W13     30.20F WCI 39
#KITTITAS 3S    N/A         40  36  85  CALM    30.22F
#THORP 6N       N/A         40  33  76  NW26G38 30.20F WCI 29
$$

WAZ027-032010-
YAKIMA VALLEY

CITY            SKY/WX      TMP DP  RH  WIND    PRES   REMARKS
SUNNYSIDE AP    MOCLDY      46  34  63  E3      30.22F
YAKIMA AIRPORT  PTCLDY      40  33  76  CALM    30.21F
YAKIMA-VAGABOND SUNNY       36  31  82  CALM    30.18F
#GRANDVIEW      N/A         49  31  50  CALM    30.26F
#MABTON         N/A         46  40  79  E2      30.22F
#NACHES 2SW     N/A         44  36  73  E2      30.19S
#TERRACE HTS    N/A         45  39  79  CALM    30.23F
#TOPPENISH      N/A         38  36  92  CALM    30.16F
#WEST VALLEY    N/A         38  34  85  SE2     30.23F
#W YAKIMA       N/A         40  33  76  E2      30.26F
#WHITE SWAN 5E  N/A         40  37  89  CALM    30.26F
#WILEY CITY 3W  N/A         39  31  73  E2      30.16S
$$

WAZ028-032010-
LOWER COLUMBIA BASIN...WASHINGTON

CITY            SKY/WX      TMP DP  RH  WIND    PRES   REMARKS
HANFORD         MOCLDY      45  33  63  SW3     30.21R
PASCO           CLOUDY      51  38  61  W13     30.25S
PROSSER AWOS    N/A         50  34  54  CALM    30.25F
RICHLAND AWOS   CLOUDY      52  38  59  SW13    30.23F
#BENTON CITY    N/A         48  36  63  W1      30.15F
#CONNELL 5N     N/A         44  38  79  SW3     30.24S
#CONNELL 5NW    N/A         43  38  82  S6      30.19S
#ELTOPIA 6NW    N/A         46  37  71  SW5     29.18R
#KAHLOTUS       N/A         46  37  71  W22G30  30.22S WCI 38
#KENNEWICK 3S   N/A         49  39  68  N6      30.24F
#PATERSON       N/A         50  39  66  NW13    30.25F
#SAGEMOOR 2W    N/A         46  37  71  SW10    30.09S
#TOUCHET 2S     N/A         51  38  61  W3G26   30.23S
#WEST PASCO     N/A         51  39  63  W5      30.27R
$$

WAZ029-032010-
FOOTHILLS OF THE BLUES...WASHINGTON

CITY            SKY/WX      TMP DP  RH  WIND    PRES   REMARKS
WALLA WALLA AP  CLOUDY      48  35  60  SW12    30.25F WCI 43
#CLYDE 6NW      N/A         46  38  73  SW10    30.24S
#DAYTON SCHOOL  N/A         45  32  60  SW6     30.24F
#LOWDEN 2SE     N/A         52  39  61  W20G29  30.22F
#PLEASANT VIEW 1N/A         45  39  79  S15     30.28S WCI 38
#PRESCOTT       N/A         50  41  71  SW3     30.25F
#WHITMAN COLLEGEN/A         49  37  63  SW9     30.31F
#WAITSBURG 5S   N/A         44  37  76  SW15G25 30.35F WCI 37
#WAITSBURG 8N   N/A         46  N/A N/A S17     30.23R WCI 39
#WHITMAN MISSIONN/A         52  39  61  SW15G26 30.27F
$$

WAZ030-032010-
BLUE MOUNTAINS...WASHINGTON

CITY            SKY/WX      TMP DP  RH  WIND    PRES   REMARKS
#DIXIE 5SE      N/A         38  33  82  SW18G26 30.12F WCI 28
#SKI BLUEWOOD   N/A         30  28  92  E3      30.14F
$$

ORZ009-041-WAZ024-032010-
COLUMBIA RIVER GORGE

CITY            SKY/WX      TMP DP  RH  WIND    PRES   REMARKS
HOOD RIVER AP   CLOUDY      48  37  65  W9      30.31S
THE DALLES AP   LGT RAIN    51  39  63  NW17    30.30F
#ARLINGTON AIRPON/A         47  38  71  W15     30.29F WCI 41
#ARLINGTON HS   N/A         50  37  61  W7      30.20F
#CELILO DOT     N/A         50  36  58  SW10    N/A
#LYLE           N/A         50  41  71  W16G29  30.32S
#MOSIER 1S      N/A         47  27  45  NW15G25 N/A    WCI 41
#MURDOCK        N/A         50  40  68  W14     30.27F
#RUFUS DOT      N/A         51  39  63  W16     N/A

$$

ORZ510-032010-
NORTH CENTRAL OREGON

CITY            SKY/WX      TMP DP  RH  WIND    PRES   REMARKS
#ANTELOPE       N/A         44  33  65  SW12    30.19F WCI 38
#CHENOWITH 1W   N/A         42  37  82  W23     N/A    WCI 32
#COW CYN RST AREN/A         42  N/A N/A SW8     N/A
#DUFUR 9E       N/A         41  36  82  N3      30.36F
#GRASS VALLEY 1SN/A         45  38  76  W10     30.18F
#KENT DOT       N/A         44  27  51  N23     N/A    WCI 35
#MAUPIN SCHOOL  N/A         50  38  63  W9      30.31F
#MORO SCHOOL    N/A         44  41  89  W6      30.25F
#SHANIKO 5WSW   N/A         41  24  50  N15     N/A    WCI 33
#SHANIKO 4NW    N/A         39  30  70  W18G28  30.22F WCI 30
#WAPANITIA AIRPON/A         45  36  70  W12     30.30F WCI 39
#WASCO DOT      N/A         47  35  63  W14     N/A    WCI 41
#WASCO 5NE      N/A         44  37  76  SW7     30.30S
$$

ORZ511-032010-
CENTRAL OREGON

CITY            SKY/WX      TMP DP  RH  WIND    PRES   REMARKS
BEND AIRPORT    PTCLDY      43  28  55  CALM    30.28F
MADRAS AIRPORT  PTCLDY      46  30  53  S8      30.29F
PRINEVILLE AP   PTCLDY      45  30  55  W10     30.28F
REDMOND AIRPORT PTCLDY      46  26  45  W9      30.28F
#ASHWOOD SCHOOL N/A         46  31  56  SE7     30.21F
#BEND 1SW       N/A         41  31  67  W3      N/A
#BEND-AWBREY    N/A         42  33  70  SW1     30.34F
#BEND-KIM LN    N/A         42  33  70  S5      30.22S
#CULVER         N/A         44  31  60  SW12    30.24F WCI 38
#CULVER 8W      N/A         47  28  47  SE3     30.22F
#LAKE BILLY CHINN/A         46  N/A N/A W10     30.29F
#MADRAS 4S      N/A         N/A N/A N/A N12     30.32F
#POWELL BUTTE 3EN/A         41  29  62  W3      N/A
#POWELL BUTTE   N/A         42  28  57  S1      30.20F
#PRINEVILLE 3N  N/A         45  32  60  SW3     30.33F

$$


ORZ509-032010-
EAST SLOPES OF OREGON CASCADES

CITY            SKY/WX      TMP DP  RH  WIND    PRES   REMARKS
SISTERS AWOS    N/A         45  28  51  W14G29  30.21F WCI 39
#BLUE BOX PASS  N/A         33  N/A N/A SW1     N/A
#CAMP SHERMAN   N/A         41  32  70  S5      30.38F
#LA PINE 4NW    N/A         38  28  67  N1      30.43R
#LAVA BUTTE DOT N/A         38  26  62  S2      N/A
#SISTERS AIRPOR N/A         43  33  67  N9      30.17S
#SISTERS ODOT   N/A         43  N/A N/A SE8     N/A
#SISTERS 3N     N/A         41  26  55  S2      30.23F
#SUNRIVER       N/A         40  31  70  S6      30.38F
#SUTTLE LK DOT  N/A         31  31  100 S1      N/A
#TUMALO 3W      N/A         42  31  65  E3      30.23F
#WANOGA BUTTE D N/A         31  21  66  W7      N/A

$$

ORZ044-032010-
LOWER COLUMBIA BASIN...OREGON

CITY            SKY/WX      TMP DP  RH  WIND    PRES   REMARKS
HERMISTON       CLOUDY      51  37  59  W20G29  30.27S
#BOARDMAN SCHOOLN/A         51  39  63  SW9     30.26F
#I-84 EX 198 DOTN/A         49  36  61  N23     N/A    WCI 42
#UMATILLA       N/A         51  37  59  SW15    30.20F
$$

ORZ507-032010-
NORTHERN FOOTHILLS OF THE BLUES

CITY            SKY/WX      TMP DP  RH  WIND    PRES   REMARKS
PENDLETON AIRPT CLOUDY      49  33  54  W21     30.25F WCI 42
#ADAMS 3WNW     N/A         47  37  68  W15G25  30.28F WCI 41
#ATHENA         N/A         46  35  65  SW12    30.29F WCI 40
#CAYUSE         N/A         47  35  63  SW15    30.28S WCI 41
#HELIX SCHOOL   N/A         46  36  68  N14G24  30.29F WCI 40
#HELIX 3N       N/A         46  37  71  SW21G30 30.20F WCI 38
#HOLDMAN 5SE    N/A         49  37  63  W18G26  30.24S WCI 43
#HOLDMAN 6E     N/A         45  37  73  SW16G25 30.08F WCI 38
#M-F FERNDALE   N/A         52  35  52  SW2     30.22F
#M-F GROVE ELEM N/A         50  33  52  SW12    30.22S
#M-FREEWATER 5SEN/A         48  35  60  SW17    30.24F WCI 42
#PENDLETON DNTN N/A         52  31  44  SW6     30.27
#PDT AQUATIC CTRN/A         50  33  52  SW17G24 30.28S
#PDT SUNRIDGE   N/A         50  35  56  W13     30.27F
#PENDLETON 7NW  N/A         50  37  61  W18G28  27.91S
#PILOT ROCK 1S  N/A         50  30  46  S8      30.26F
#PILOT ROCK     N/A         48  34  58  W5      30.27F
#TUTUILLA       N/A         50  35  56  CALM    30.29F
#UMAPINE 2E     N/A         52  39  61  SW13G24 30.22F
#WESTON SCHOOL  N/A         46  32  58  NW14G30 30.12F WCI 40

$$

ORZ508-032010-
SOUTHERN FOOTHILLS OF THE BLUES

CITY            SKY/WX      TMP DP  RH  WIND    PRES   REMARKS
LEXINGTON       MOCLDY      46  36  68  NW10    30.29F
#AJAX           N/A         43  30  60  S2      27.99F
#CONDON SCHOOL  N/A         43  34  70  SW14    30.17F WCI 36
#CONDON 5W      N/A         41  30  65  SW15G24 30.19F WCI 33
#HEPPNER EOC    N/A         44  34  68  W7      30.22F
#HEPPNER 4NE    N/A         41  34  76  W8      30.29F
#LEXINGTON 2SE  N/A         49  34  56  W8      30.25F
#MIKKALO        N/A         45  35  68  NW3     30.35F
#OLEX 4N        N/A         47  38  71  W17G26  30.27S WCI 40
#RUGGS 5NE      N/A         41  32  70  W13     30.40F WCI 34
#RUGGS 2SW      N/A         44  32  62  NW8     30.31F

$$

ORZ502-503-032010-
BLUE MOUNTAINS

CITY            SKY/WX      TMP DP  RH  WIND    PRES   REMARKS
MEACHAM         CLOUDY      37  28  70  MISG    30.22F
#BATTLE MTN DOT N/A         33  30  89  SE16    N/A    WCI 23
#GREENHORN 9SW  N/A         36  35  96  CALM    26.44R
#LADD CYN SMT   N/A         31  29  92  SE16    N/A    WCI 20
#LADD CREEK ODOTN/A         35  29  78  S6      N/A
#LONG CREEK HS  N/A         38  35  89  N5      30.25F
#N POWDER DOT   N/A         34  30  85  W7      N/A
#PIKES PEAK     N/A         36  30  79  SW31G38 27.99S WCI 23
#TOLLGATE       N/A         29  28  96  CALM    30.01F
#TROY SCHOOL    N/A         40  38  92  W5      30.14F
#UKIAH          N/A         39  33  79  S1      30.24F
#WESTON 4E      N/A         38  32  79  SW8     30.27F
$$

ORZ505-032010-
JOHN DAY BASIN

CITY            SKY/WX      TMP DP  RH  WIND    PRES   REMARKS
JOHN DAY        CLOUDY      38  33  82  W3      30.28S
#ANTELOPE 9ESE  N/A         51  31  46  SW9     N/A
#DAYVILLE SCHOOLN/A         44  32  62  E2      30.22F
#MITCHELL       N/A         45  33  63  CALM    30.40F
#MITCHELL 8NW   N/A         42  27  55  SW2     30.51F
#MONUMENT HS    N/A         45  36  70  CALM    30.25F
#MT. VERNON 5SE N/A         37  31  79  CALM    30.22S
#SPRAY SCHOOL   N/A         47  N/A N/A CALM    N/A
$$

ORZ506-032010-
OCHOCO AND JOHN DAY HIGHLANDS

CITY            SKY/WX      TMP DP  RH  WIND    PRES   REMARKS
#BUCK CREEK DOT N/A         42  34  73  W8      N/A
#HORSE RIDGE DO N/A         40  26  57  NW8     N/A
#KEYES SMT DOT  N/A         38  31  76  SW31G38 N/A    WCI 26
#PINE MTN OBS   N/A         32  23  69  N7      N/A
#SENECA         N/A         34  N/A N/A CALM    N/A
#SENECA 9NW     N/A         34  30  85  CALM    30.37F
$$

ORZ049-032010-
GRANDE RONDE VALLEY

CITY            SKY/WX      TMP DP  RH  WIND    PRES   REMARKS
LA GRANDE       CLOUDY      41  30  65  SE6     30.24F
#COVE           N/A         40  37  89  CALM    30.26F
#COVE SCHOOL    N/A         40  33  76  CALM    30.24F
#COVE 6NW       N/A         37  33  85  SE1     30.33F
#ELGIN 3N       N/A         38  30  73  S8      30.19S
#ELGIN 1E       N/A         38  33  82  CALM    N/A
#IMBLER SCHOOL  N/A         36  32  85  SE7     30.18F
#ISLAND CITY 4N N/A         44  44  100 CALM    30.39F
#LADD CYN DOT   N/A         36  31  82  SE12    N/A    WCI 28
#UNION 1S       N/A         35  31  85  SE9     30.35F
$$

ORZ050-032010-
WALLOWA COUNTY

CITY            SKY/WX      TMP DP  RH  WIND    PRES   REMARKS
JOSEPH AIRPORT  PTCLDY      37  27  67  CALM    30.20F
#IMNAHA SCHOOL  N/A         44  30  58  N9      30.23F
#IMNAHA 10S     N/A         39  28  64  S5      30.20F
#JOSEPH 3N      N/A         37  24  59  E1      30.20F
#JOSEPH 3W      N/A         34  24  66  CALM    30.01F
#LOSTINE        N/A         41  27  57  CALM    30.11F
#LOSTINE 3SE    N/A         42  28  57  SE3     30.18F
#MT HOWARD 8000 N/A         22  16  77  SW7     30.05F
#PROMISE 1S     N/A         35  31  85  E2      30.40F
#WALLOWA SCHOOL N/A         40  32  73  N2      30.18F



$$



USA.gov is the U.S. government's official web portal to all federal, state and local government web resources and services.